Weather History for Window Rock, AZ

Change the Weather History Date:

Monday, March 10, 2014

  Actual Average Record
Temperature  
Mean Temperature 42 °F -  
Max Temperature 66 °F 53 °F 73 °F (1972)
Min Temperature 21 °F 25 °F 5 °F (1964)
Degree Days  
Heating Degree Days 22    
Moisture  
Dew Point 12 °F    
Average Humidity 39    
Maximum Humidity 75    
Minimum Humidity 10    
Precipitation  
Precipitation 0.00 in - - ()
Sea Level Pressure  
Sea Level Pressure 30.03 in    
Wind  
Wind Speed 4 mph (SW)    
Max Wind Speed 14 mph    
Max Gust Speed 23 mph    
Visibility 10 miles    
Events      
Averages and records for this station are not official NWS values.
T = Trace of Precipitation, MM = Missing Value Source: NWS Daily Summary

Daily Weather History Graph

Daily Weather History Graph

Search for Another Location

Airport:

Trip Planner

Search our weather history database for the weather conditions in past years. The results will help you decide how hot, cold, wet, or windy it might be!

Date:

Astronomy

Mar. 10, 2014 Rise Set
Actual Time 7:33 AM MDT 7:19 PM MDT
Civil Twilight 7:08 AM MDT 7:45 PM MDT
Nautical Twilight 6:38 AM MDT 8:14 PM MDT
Astronomical Twilight 6:09 AM MDT 8:44 PM MDT
Moon 2:13 PM MDT (3/10) 3:39 AM MDT (3/10)
Length of Visible Light 12h 36m
Length of Day
11h 45m
Waxing Gibbous, 70% of the Moon is Illuminated
Mar 10
Waxing Gibbous
Mar 16
Full
Mar 23
Last Quarter
Mar 30
New
Apr 7
First Quarter

Hourly Weather History & Observations

Time (MDT) Temp. Windchill Dew Point Humidity Pressure Visibility Wind Dir Wind Speed Gust Speed Precip Events Conditions
12:53 AM 24.1 °F - 12.9 °F 62% 30.19 in 10.0 mi Calm Calm - N/A   Clear
1:53 AM 24.1 °F 18.2 °F 15.1 °F 69% 30.18 in 10.0 mi SSW 4.6 mph - N/A   Clear
2:53 AM 23.0 °F - 15.1 °F 72% 30.17 in 10.0 mi Calm Calm - N/A   Clear
3:53 AM 23.0 °F - 16.0 °F 74% 30.15 in 10.0 mi Calm Calm - N/A   Clear
4:53 AM 21.9 °F - 14.0 °F 72% 30.13 in 10.0 mi Calm Calm - N/A   Clear
5:53 AM 24.1 °F 19.7 °F 17.1 °F 75% 30.10 in 10.0 mi SSW 3.5 mph - N/A   Clear
6:53 AM 23.0 °F 18.4 °F 16.0 °F 74% 30.12 in 10.0 mi SSW 3.5 mph - N/A   Clear
7:53 AM 21.9 °F 17.2 °F 15.1 °F 75% 30.15 in 10.0 mi North 3.5 mph - N/A   Clear
8:53 AM 33.1 °F - 19.0 °F 56% 30.14 in 10.0 mi Calm Calm - N/A   Clear
9:53 AM 41.0 °F - 19.0 °F 41% 30.13 in 10.0 mi Calm Calm - N/A   Clear
10:53 AM 50.0 °F - 17.1 °F 27% 30.10 in 10.0 mi Calm Calm - N/A   Clear
11:53 AM 57.9 °F - 12.9 °F 17% 30.06 in 10.0 mi Variable 3.5 mph - N/A   Clear
12:53 PM 64.9 °F - 6.1 °F 10% 30.01 in 10.0 mi West 12.7 mph - N/A   Clear
1:53 PM 64.9 °F - 6.1 °F 10% 29.98 in 10.0 mi West 10.4 mph 21.9 mph N/A   Clear
2:53 PM 64.0 °F - 7.0 °F 11% 29.96 in 10.0 mi WNW 11.5 mph 19.6 mph N/A   Clear
3:53 PM 63.0 °F - 6.1 °F 11% 29.95 in 10.0 mi West 10.4 mph - N/A   Clear
4:53 PM 64.0 °F - 9.0 °F 12% 29.94 in 10.0 mi West 13.8 mph 23.0 mph N/A   Clear
5:53 PM 63.0 °F - 6.1 °F 11% 29.91 in 10.0 mi WSW 13.8 mph - N/A   Clear
6:53 PM 59.0 °F - 7.0 °F 13% 29.92 in 10.0 mi SW 12.7 mph - N/A   Clear
7:53 PM 46.9 °F - 6.1 °F 19% 29.97 in 10.0 mi SSW 6.9 mph - N/A   Clear
8:53 PM 48.0 °F - 9.0 °F 21% 29.92 in 10.0 mi SW 3.5 mph - N/A   Clear
9:53 PM 43.0 °F - 12.0 °F 28% 29.90 in 10.0 mi Calm Calm - N/A   Clear
10:53 PM 46.9 °F - 15.1 °F 28% 29.83 in 10.0 mi SSW 4.6 mph - N/A   Clear
11:53 PM 45.0 °F 43.5 °F 19.0 °F 36% 29.80 in 10.0 mi SSE 3.5 mph - N/A   Clear